This demonstration page uses our WeatherBlox Daily Observations layout. Learn more.

Left ArrowRight Arrow

Hourly Observations for July 30, 2021

Temp ( °F °C ) Dew Point ( °F °C ) Humidity (%) Winds ( mph kmh ) Pressure ( in mb ) Visibility ( mi km ) Precip ( " mm )
12:53 am 00:53 Clear 69 20.6 57 13.9 66 66 E 3 6 29.99 1016 10 16 0.00 0.00
1:53 am 01:53 Clear 65 18.3 51 10.6 61 61 Calm 29.99 1016 10 16 0.00 0.00
2:53 am 02:53 Clear 65 18.3 52 11.1 63 63 N 6 9 29.99 1016 10 16 0.00 0.00
3:53 am 03:53 Clear 60 15.6 48 8.9 65 65 WSW 5 7 30.01 1016 10 16 0.00 0.00
4:53 am 04:53 Clear 61 16.1 49 9.4 65 65 SSE 9 15 30.04 1017 10 16 0.00 0.00
5:53 am 05:53 Sunny 61 16.1 49 9.4 65 65 Calm 30.05 1018 8 13 0.00 0.00
6:53 am 06:53 Sunny with Nearby Thunderstorms 65 18.3 52 11.1 63 63 ENE 5 7 30.06 1018 9 14 0.00 0.00
7:12 am 07:12 Sunny 66 18.9 54 12.2 65 65 VRB 6 9 30.02 1017 9 14 0.00 0.00
7:53 am 07:53 Sunny 66 18.9 56 13.3 70 70 SE 6 9 30.06 1018 9 14 0.00 0.00
8:53 am 08:53 Partly Cloudy 71 21.7 57 13.9 61 61 N 7 11 30.09 1019 9 14 0.00 0.00
9:53 am 09:53 Sunny 76 24.4 58 14.4 54 54 ENE 7 11 30.10 1019 10 16 0.00 0.00
10:53 am 10:53 Sunny 81 27.2 59 15 47 47 E 12 19 30.10 1019 10 16 0.00 0.00
11:53 am 11:53 Sunny 86 30 60 15.6 42 42 E 12 19 30.09 1019 10 16 0.00 0.00
12:53 pm 12:53 Sunny 90 32.2 60 15.6 37 37 E 13 20 30.09 1019 10 16 0.00 0.00
1:53 pm 13:53 Sunny 91 32.8 58 14.4 33 33 NE 15 24 30.08 1019 10 16 0.00 0.00
2:53 pm 14:53 Sunny 94 34.4 56 13.3 28 28 ENE 14 22 30.06 1018 10 16 0.00 0.00
3:53 pm 15:53 Sunny 95 35 54 12.2 25 25 E 13 20 30.06 1018 10 16 0.00 0.00
4:53 pm 16:53 Sunny 95 35 47 8.3 19 19 NE 9 15 30.06 1018 10 16 0.00 0.00
5:53 pm 17:53 Sunny 95 35 47 8.3 19 19 ENE 14 22 30.05 1018 10 16 0.00 0.00
6:53 pm 18:53 Sunny 94 34.4 49 9.4 21 21 E 12 19 30.04 1017 10 16 0.00 0.00
7:53 pm 19:53 Sunny 91 32.8 49 9.4 24 24 E 12 19 30.05 1018 10 16 0.00 0.00
8:53 pm 20:53 Sunny 87 30.6 48 8.9 26 26 E 10 17 30.07 1018 10 16 0.00 0.00
9:53 pm 21:53 Clear 81 27.2 46 7.8 29 29 E 10 17 30.10 1019 9 14 0.00 0.00
10:53 pm 22:53 Clear 77 25 46 7.8 33 33 E 13 20 30.11 1020 9 14 0.00 0.00
11:53 pm 23:53 Clear 77 25 42 5.6 29 29 E 15 24 30.12 1020 10 16 0.00 0.00

Powered by AerisWeather